FLOCK 4BE 1

导读 | 星芒AI

FLOCK 4BE 1 是由美国公司 Planet Labs 运营的遥感卫星,属于其“Flock”系列星座的一部分。该卫星主要用于地球观测,搭载高分辨率多光谱相机,能够提供亚米级分辨率的影像数据,广泛应用于环境监测、农业管理、城市规划等领域。FLOCK 4BE 1 采用小型卫星设计,具有成本低、部署快、数据更新频繁等优势,是现代商业遥感的重要组成部分。

基本信息
目录编号:
60518
目录名称:
FLOCK 4BE 1
国际标识:
2024-149BC
轨道中心:
EARTH
卫星名称:
FLOCK 4BE 1
卫星全名:
FLOCK 4BE 1
卫星状态:
在轨 (已飞行440 天)
发射日期:
2024-08-16 UTC
国别 :
美国 (US)
星等 :
--
轨道信息
数据来源 国际轨道数据
星历时间: 2025-10-30T00:43:59+0800
12小时前
查看轨道信息
半长轴: 6844.234km
偏心率: 0.0005072
轨道倾角: 97.399°
近地点辐角 51.697°
升交点赤经 21.213°
平近点角 308.472°
近地点: 462.627km
远地点: 469.571km
周期: 93.918分钟
每日圈数: 15.33259
详细信息
使用方式:
暂无
2D轨道图
3D轨道图
轨道高度分析图
轨道倾角分析图
轨道综合分析图
查看轨道综合分析图